星链-3346 (STARLINK-3346 )

导读

STARLINK-3346是美国SpaceX公司星链星座中的一颗卫星,于2022年1月6日发射升空,属于星链低轨互联网星座组网卫星。它运行在近地轨道,依托星链庞大星座网络,为全球提供高速低延迟卫星互联网接入服务,服务覆盖六十多个国家,助力偏远地区网络覆盖与应急通信等场景。

基本信息
目录编号:
50821
目录名称:
STARLINK-3346
国际标识:
2022-001U
轨道中心:
EARTH
卫星名称:
星链-3346
卫星全名:
星链-3346 (STARLINK-3346 )
卫星状态:
在轨 (已飞行1623 天)
发射日期:
2022-01-06 UTC
国别 :
美国 (US)
星等 :
--
轨道信息
数据来源 国际轨道数据 AOE轨道数据
星历时间 2026-06-17T10:02:16+0800
10小时前
查看轨道信息
2026-06-16T23:00:00+0800
22小时前
查看轨道信息
半长轴 6917.903km 6917.842km
偏心率 0.0001624 0.0001543
轨道倾角 53.162° 53.161°
近地点辐角 90.309° 90.871°
升交点赤经 82.708° 84.776°
平近点角 269.808° 289.800°
近地点 538.642km 538.637km
远地点 540.89km 540.773km
周期 95.438分钟 95.437分钟
每日圈数 15.088329 15.088528
详细信息
固有亮度:
5
最大亮度:
2.5
卫星平台:
Starlink v1.5
覆盖范围:
全球
运营商:
太空探索技术公司
运营商所在国:
美国
制造商(研发单位):
太空探索技术公司
制造商所在国:
美国
使用方式:
暂无
卫星简介
星链(Starlink)计划是由太空探索技术公司(SpaceX)提出的一个巨型低轨卫星互联网星座项目,计划在2019年至2024年间在太空搭建由约1.2万颗卫星组成的“星链”网络,其中1584颗将部署在地球上空550千米处的近地轨道,并从2020年开始工作。该卫星仍在工作。
2D轨道图
3D轨道图
轨道高度分析图
轨道倾角分析图
轨道综合分析图
查看轨道综合分析图